FW8672 Weather Reports


Display with metric or nautical units.
time (UTC)temp
F
wind
direction
speed
MPH
gust
MPH
rain 1hr
in
rain 24hr
in
rain mn
in
humidity
%
barometer
mb
20260906124330 80 205 2.0 5.0 0.00 0.00 0.00 75 1012.3
20260906123815 80 221 2.0 5.0 0.00 0.00 0.00 75 1012.3
20260906123327 79 220 1.0 3.0 0.00 0.00 0.00 76 1012.2
20260906123052 79 220 0.0 3.0 0.00 0.00 0.00 76 1012.1
20260906122831 79 220 1.0 3.0 0.00 0.00 0.00 76 1012.2
20260906122324 79 215 1.0 3.0 0.00 0.00 0.00 76 1012.0
20260906121837 78 215 1.0 3.0 0.00 0.00 0.00 77 1012.0
20260906121511 78 215 1.0 4.0 0.00 0.00 0.00 77 1011.9
20260906121320 78 215 1.0 5.0 0.00 0.00 0.00 77 1012.0
20260906120855 78 217 2.0 5.0 0.00 0.00 0.00 77 1012.1
20260906120317 77 230 1.0 3.0 0.00 0.00 0.00 77 1012.2
20260906120007 77 230 1.0 4.0 0.00 0.00 0.00 77 1012.1
20260906115830 77 230 1.0 4.0 0.00 0.00 0.00 77 1012.3
20260906115315 77 230 2.0 4.0 0.00 0.00 0.00 77 1012.3
20260906114828 77 228 1.0 2.0 0.00 0.00 0.00 77 1012.4
20260906114542 76 228 0.0 0.0 0.00 0.00 0.00 77 1012.3
20260906114318 77 228 0.0 1.0 0.00 0.00 0.00 77 1012.4
20260906113817 77 228 0.0 2.0 0.00 0.00 0.00 77 1012.4
20260906113330 77 228 1.0 3.0 0.00 0.00 0.00 77 1012.4
20260906113045 76 228 0.0 3.0 0.00 0.00 0.00 77 1012.3
20260906112814 77 228 1.0 3.0 0.00 0.00 0.00 77 1012.3
20260906112327 77 228 0.0 2.0 0.00 0.00 0.00 77 1012.2
20260906111840 77 228 0.0 2.0 0.00 0.00 0.00 77 1012.2
20260906111619 76 228 0.0 2.0 0.00 0.00 0.00 77 1012.1
20260906111324 77 228 1.0 2.0 0.00 0.00 0.00 77 1012.1
20260906110817 77 228 1.0 2.0 0.00 0.00 0.00 76 1012.0
20260906110320 77 228 0.0 1.0 0.00 0.00 0.00 76 1011.7
20260906110017 76 228 0.0 0.0 0.00 0.01 0.00 76 1011.5
20260906105851 77 228 0.0 0.0 0.00 0.01 0.00 76 1011.6
20260906105322 77 228 0.0 1.0 0.00 0.01 0.00 76 1011.5
20260906104826 77 228 0.0 2.0 0.00 0.01 0.00 76 1011.5
20260906104520 77 228 0.0 2.0 0.00 0.01 0.00 76 1011.3
20260906104319 77 228 1.0 3.0 0.00 0.01 0.00 76 1011.3
20260906103833 77 228 1.0 3.0 0.00 0.01 0.00 76 1011.3
20260906103337 77 228 0.0 1.0 0.00 0.01 0.00 76 1011.3
20260906103014 77 228 0.0 3.0 0.00 0.01 0.00 76 1011.1
20260906102850 77 228 0.0 4.0 0.00 0.01 0.00 76 1011.2
20260906102342 77 228 2.0 4.0 0.00 0.01 0.00 76 1011.2
20260906101831 77 214 0.0 0.0 0.00 0.01 0.00 76 1011.2
20260906101558 77 214 0.0 0.0 0.00 0.01 0.00 76 1011.2
20260906101315 77 214 0.0 2.0 0.00 0.01 0.00 76 1011.3
20260906100828 78 214 0.0 2.0 0.00 0.01 0.00 76 1011.3
20260906100341 78 214 0.0 1.0 0.00 0.01 0.00 76 1011.3
20260906100021 77 214 0.0 2.0 0.00 0.01 0.00 75 1011.2
20260906095824 78 214 0.0 2.0 0.00 0.01 0.00 75 1011.3
20260906095337 78 214 0.0 2.0 0.00 0.01 0.00 75 1011.3
20260906094820 78 214 0.0 3.0 0.00 0.01 0.00 75 1011.2
20260906094532 78 214 1.0 3.0 0.00 0.01 0.00 75 1011.0
20260906094333 78 213 1.0 4.0 0.00 0.01 0.00 75 1011.1
20260906093817 78 213 1.0 5.0 0.00 0.01 0.00 75 1011.0
20260906093350 78 221 2.0 4.0 0.00 0.01 0.00 75 1011.0
20260906093031 78 231 1.0 6.0 0.00 0.01 0.00 75 1010.9
20260906092842 78 227 2.0 6.0 0.00 0.01 0.00 75 1011.0
20260906092334 78 239 3.0 5.0 0.00 0.01 0.00 75 1010.9
20260906091818 78 242 2.0 5.0 0.00 0.01 0.00 75 1010.9
20260906091530 78 219 2.0 5.0 0.00 0.01 0.00 75 1010.8
20260906091331 78 223 3.0 5.0 0.00 0.01 0.00 75 1011.0
20260906090835 78 227 2.0 5.0 0.00 0.01 0.00 75 1010.9
20260906090327 78 207 2.0 5.0 0.00 0.01 0.00 75 1010.9
20260906090028 78 234 1.0 5.0 0.00 0.01 0.00 75 1010.9
20260906085820 78 234 3.0 5.0 0.00 0.01 0.00 75 1011.0
20260906085323 78 213 2.0 4.0 0.00 0.01 0.00 75 1010.9
20260906084853 79 207 1.0 4.0 0.00 0.01 0.00 75 1010.9
20260906084528 78 207 1.0 4.0 0.00 0.01 0.00 75 1010.8
20260906084324 79 195 1.0 2.0 0.00 0.01 0.00 75 1010.9
20260906083828 79 195 0.0 1.0 0.00 0.01 0.00 75 1011.0
20260906083322 79 195 0.0 1.0 0.00 0.01 0.00 75 1010.9
20260906083051 78 195 0.0 1.0 0.00 0.01 0.00 75 1010.7
20260906082826 79 195 0.0 1.0 0.00 0.01 0.00 75 1010.8
20260906082315 79 195 0.0 1.0 0.00 0.01 0.00 75 1010.8
20260906081821 79 195 0.0 2.0 0.00 0.01 0.00 74 1010.8
20260906081519 79 195 0.0 2.0 0.00 0.01 0.00 74 1010.7
20260906081314 79 195 0.0 2.0 0.00 0.01 0.00 74 1010.9
20260906080818 79 199 0.0 4.0 0.00 0.01 0.00 74 1010.9
20260906080331 79 185 1.0 4.0 0.00 0.01 0.00 74 1010.9
20260906080039 79 187 1.0 4.0 0.00 0.01 0.00 74 1010.8
20260906075815 79 233 0.0 1.0 0.00 0.01 0.00 74 1010.9
20260906075328 79 233 0.0 2.0 0.00 0.01 0.00 74 1010.9
20260906074821 79 233 0.0 2.0 0.00 0.01 0.00 74 1010.9
20260906074557 79 233 0.0 2.0 0.00 0.01 0.00 74 1010.8
20260906074324 79 233 0.0 3.0 0.00 0.01 0.00 74 1011.0
20260906073817 79 233 1.0 3.0 0.00 0.01 0.00 74 1011.0
20260906073321 79 233 2.0 3.0 0.00 0.01 0.00 74 1011.0
20260906073013 79 233 0.0 4.0 0.00 0.01 0.00 74 1010.9
20260906072850 79 233 1.0 4.0 0.00 0.01 0.00 74 1011.0
20260906072322 79 233 2.0 4.0 0.00 0.01 0.00 74 1011.0
20260906071826 79 215 1.0 4.0 0.00 0.01 0.00 74 1011.0
20260906071510 79 215 1.0 4.0 0.00 0.01 0.00 74 1010.9
20260906071319 79 215 2.0 4.0 0.00 0.01 0.00 74 1011.0
20260906070853 79 223 1.0 3.0 0.00 0.01 0.00 74 1011.1
20260906070315 79 223 2.0 7.0 0.00 0.01 0.00 74 1011.1
20260906070010 79 223 3.0 7.0 0.00 0.01 0.00 74 1011.0
20260906065828 79 217 2.0 4.0 0.00 0.01 0.00 74 1011.1
20260906065341 79 241 1.0 3.0 0.00 0.01 0.00 74 1011.1
20260906064826 79 241 0.0 3.0 0.00 0.01 0.00 74 1011.1
20260906064530 79 241 1.0 3.0 0.00 0.01 0.00 74 1011.0
20260906064339 79 241 1.0 3.0 0.00 0.01 0.00 74 1011.2
20260906063823 79 241 0.0 3.0 0.00 0.01 0.00 74 1011.2
20260906063315 79 241 0.0 4.0 0.00 0.01 0.00 74 1011.2
20260906063051 79 241 1.0 4.0 0.00 0.01 0.00 74 1011.1
20260906062850 80 241 2.0 4.0 0.00 0.01 0.00 73 1011.2
20260906062333 80 234 2.0 4.0 0.00 0.01 0.00 73 1011.2
20260906061826 80 234 1.0 3.0 0.00 0.01 0.00 73 1011.3
20260906061552 79 234 0.0 3.0 0.00 0.01 0.00 73 1011.2
20260906061340 80 234 1.0 4.0 0.00 0.01 0.00 73 1011.3
20260906060823 80 233 1.0 4.0 0.00 0.01 0.00 73 1011.4
20260906060336 80 240 2.0 6.0 0.00 0.01 0.00 73 1011.3
20260906060049 80 242 1.0 6.0 0.00 0.01 0.00 73 1011.2
20260906055819 80 240 2.0 6.0 0.00 0.01 0.00 73 1011.3
20260906055329 80 233 3.0 5.0 0.00 0.01 0.00 73 1011.4
20260906054841 80 234 1.0 3.0 0.00 0.01 0.00 73 1011.6
20260906054504 80 234 1.0 3.0 0.00 0.01 0.00 73 1011.5
20260906054325 80 234 1.0 3.0 0.00 0.01 0.00 73 1011.6
20260906053838 81 234 1.0 3.0 0.00 0.01 0.00 73 1011.7
20260906053330 81 234 1.0 5.0 0.00 0.01 0.00 73 1011.7
20260906053005 80 234 2.0 5.0 0.00 0.01 0.00 73 1011.7
20260906052814 81 234 3.0 5.0 0.00 0.01 0.00 73 1011.8
20260906052327 81 221 1.0 4.0 0.00 0.01 0.00 73 1011.7
20260906051831 81 221 1.0 3.0 0.00 0.01 0.00 73 1011.8
20260906051523 80 221 0.0 4.0 0.00 0.01 0.00 73 1011.7
20260906051324 81 221 1.0 4.0 0.00 0.01 0.00 73 1011.8
20260906050828 81 221 1.0 4.0 0.00 0.01 0.00 73 1011.7
20260906050320 81 221 1.0 4.0 0.00 0.01 0.00 74 1011.8
20260906050045 80 221 1.0 4.0 0.00 0.01 0.01 74 1011.7
20260906045834 81 221 1.0 3.0 0.00 0.01 0.01 74 1011.8
20260906045408 81 221 1.0 3.0 0.00 0.01 0.01 74 1011.8
20260906044830 81 221 2.0 5.0 0.00 0.01 0.01 74 1011.8
20260906044551 80 221 1.0 5.0 0.00 0.01 0.01 74 1011.6
20260906044344 81 221 2.0 5.0 0.00 0.01 0.01 74 1011.7
20260906043827 81 246 2.0 4.0 0.00 0.01 0.01 74 1011.7
20260906043340 81 246 1.0 4.0 0.00 0.01 0.01 74 1011.6
20260906043103 80 246 1.0 4.0 0.00 0.01 0.01 74 1011.5
20260906042853 81 246 1.0 4.0 0.00 0.01 0.01 74 1011.7
20260906042353 81 246 1.0 3.0 0.00 0.01 0.01 74 1011.8
20260906041845 81 246 0.0 3.0 0.00 0.01 0.01 74 1011.8
20260906041601 80 246 0.0 3.0 0.00 0.01 0.01 74 1011.6
20260906041328 81 246 1.0 3.0 0.00 0.01 0.01 74 1011.8
20260906040841 81 250 0.0 3.0 0.00 0.01 0.01 73 1011.9
20260906040325 81 250 1.0 4.0 0.00 0.01 0.01 73 1012.0
20260906040026 80 250 1.0 4.0 0.00 0.01 0.01 73 1012.0
20260906035838 81 255 2.0 4.0 0.00 0.01 0.01 74 1012.1
20260906035352 81 235 2.0 4.0 0.00 0.01 0.01 74 1012.0
20260906034844 81 235 2.0 4.0 0.00 0.01 0.01 74 1012.0
20260906034516 80 235 1.0 4.0 0.00 0.01 0.01 73 1012.0
20260906034328 81 235 2.0 4.0 0.00 0.01 0.01 73 1012.0
20260906033840 81 236 1.0 4.0 0.00 0.01 0.01 73 1012.1
20260906033345 81 238 2.0 4.0 0.00 0.01 0.01 73 1012.3
20260906033048 80 223 1.0 4.0 0.00 0.01 0.01 73 1012.2
20260906032837 81 218 2.0 4.0 0.00 0.01 0.01 73 1012.4
20260906032341 80 219 2.0 4.0 0.00 0.01 0.01 73 1012.3
20260906031834 80 145 1.0 2.0 0.00 0.01 0.01 73 1012.5
20260906031556 80 145 0.0 1.0 0.00 0.01 0.01 73 1012.4
20260906031347 81 145 0.0 2.0 0.00 0.01 0.01 73 1012.4
20260906030830 80 145 0.0 2.0 0.00 0.01 0.01 73 1012.4
20260906030344 80 145 1.0 2.0 0.00 0.01 0.01 73 1012.5
20260906030011 80 145 0.0 2.0 0.00 0.01 0.01 73 1012.4
20260906025828 80 145 0.0 2.0 0.00 0.01 0.01 73 1012.6
20260906025341 80 145 0.0 2.0 0.00 0.01 0.01 73 1012.4
20260906024825 81 144 0.0 2.0 0.00 0.01 0.01 73 1012.5
20260906024531 80 144 0.0 2.0 0.00 0.01 0.01 73 1012.4
20260906024337 80 144 0.0 2.0 0.00 0.01 0.01 73 1012.5
20260906023838 80 141 0.0 2.0 0.00 0.01 0.01 73 1012.6
20260906023330 80 142 0.0 1.0 0.00 0.01 0.01 73 1012.5
20260906023100 80 142 0.0 1.0 0.00 0.01 0.01 73 1012.5
20260906022843 80 142 0.0 0.0 0.00 0.01 0.01 73 1012.6
20260906022327 81 142 0.0 1.0 0.00 0.01 0.01 73 1012.6
20260906021840 81 142 0.0 1.0 0.00 0.01 0.01 73 1012.4
20260906021506 80 142 0.0 1.0 0.00 0.01 0.01 73 1012.2
20260906021344 81 142 0.0 1.0 0.00 0.01 0.01 73 1012.3
20260906020858 81 142 0.0 2.0 0.00 0.01 0.01 73 1012.2
20260906020350 81 142 0.0 2.0 0.00 0.01 0.01 73 1012.3
20260906020005 80 142 0.0 2.0 0.00 0.01 0.01 73 1012.2
20260906015903 81 142 0.0 2.0 0.00 0.01 0.01 73 1012.3
20260906015326 81 142 0.0 2.0 0.00 0.01 0.01 73 1012.1
20260906014839 81 142 0.0 1.0 0.00 0.01 0.01 73 1012.1
20260906014504 80 142 0.0 1.0 0.00 0.01 0.01 73 1012.0
20260906014343 81 142 0.0 1.0 0.00 0.01 0.01 72 1012.1
20260906013856 81 142 0.0 0.0 0.00 0.01 0.01 72 1012.0
20260906013348 81 142 0.0 0.0 0.00 0.01 0.01 72 1012.0
20260906013004 80 142 0.0 2.0 0.00 0.01 0.01 72 1011.8
20260906012832 81 142 0.0 2.0 0.00 0.01 0.01 72 1011.9
20260906012345 81 142 0.0 1.0 0.00 0.01 0.01 72 1011.7
20260906011828 81 142 0.0 1.0 0.00 0.01 0.01 72 1011.6
20260906011523 81 142 0.0 1.0 0.00 0.01 0.01 72 1011.4
20260906011341 81 142 0.0 1.0 0.00 0.01 0.01 72 1011.6
20260906010825 81 142 0.0 1.0 0.00 0.01 0.01 72 1011.5
20260906010334 81 142 0.0 1.0 0.00 0.01 0.01 72 1011.4
20260906010044 81 142 0.0 1.0 0.00 0.02 0.01 72 1011.3
20260906005847 81 142 0.0 1.0 0.00 0.02 0.01 72 1011.4
20260906005330 81 142 0.0 1.0 0.00 0.02 0.01 72 1011.3
20260906004844 82 142 0.0 1.0 0.00 0.02 0.01 72 1011.2
20260906004607 81 142 0.0 1.0 0.00 0.02 0.01 72 1011.1
20260906004328 82 142 0.0 1.0 0.00 0.02 0.01 72 1011.1
20260906003841 82 142 0.0 1.0 0.00 0.02 0.01 72 1011.2
20260906003355 82 142 0.0 1.0 0.00 0.02 0.01 72 1011.2
20260906003103 82 142 0.0 1.0 0.00 0.02 0.01 72 1011.0
20260906002838 82 142 0.0 1.0 0.00 0.02 0.01 72 1011.1
20260906002331 82 142 0.0 2.0 0.00 0.02 0.01 72 1011.1
20260906001834 82 142 1.0 2.0 0.00 0.02 0.01 72 1011.0
20260906001518 82 142 0.0 1.0 0.00 0.02 0.01 71 1010.8
20260906001327 82 142 0.0 1.0 0.00 0.02 0.01 71 1010.9
20260906000840 83 142 0.0 1.0 0.00 0.02 0.01 71 1010.9
20260906000344 83 142 0.0 2.0 0.00 0.02 0.01 70 1010.8
20260906000038 82 142 0.0 2.0 0.00 0.15 0.01 70 1010.6
20260905235857 83 142 0.0 2.0 0.00 0.15 0.01 70 1010.8
20260905235349 83 143 0.0 1.0 0.00 0.15 0.01 70 1010.9
20260905234903 84 143 0.0 2.0 0.00 0.15 0.01 69 1010.8
20260905234516 83 143 0.0 2.0 0.00 0.15 0.01 69 1010.7
20260905234324 84 142 0.0 2.0 0.00 0.15 0.01 69 1010.7
20260905233853 84 208 0.0 2.0 0.00 0.15 0.01 69 1010.9
20260905233346 84 160 0.0 3.0 0.00 0.15 0.01 68 1011.1
20260905233014 84 163 0.0 3.0 0.00 0.15 0.01 68 1011.0
20260905232830 85 187 0.0 2.0 0.00 0.15 0.01 68 1011.0
20260905232343 85 194 0.0 2.0 0.00 0.15 0.01 68 1010.9
20260905231847 85 195 0.0 2.0 0.00 0.15 0.01 68 1010.8
20260905231518 85 195 0.0 2.0 0.00 0.15 0.01 68 1010.7
20260905231409 85 145 0.0 2.0 0.00 0.15 0.01 67 1010.9
20260905230831 86 147 0.0 2.0 0.00 0.15 0.01 67 1010.8
20260905230344 86 161 0.0 2.0 0.00 0.15 0.01 67 1010.8
20260905230012 85 161 0.0 2.0 0.00 0.15 0.01 66 1010.8
20260905225828 86 161 0.0 2.0 0.00 0.15 0.01 66 1010.9
20260905225341 86 165 0.0 2.0 0.00 0.15 0.01 66 1011.1
20260905224825 86 181 0.0 1.0 0.00 0.15 0.01 66 1011.1
20260905224605 86 181 0.0 3.0 0.00 0.15 0.01 66 1011.0
20260905224339 87 167 0.0 3.0 0.00 0.15 0.01 66 1011.1
20260905223852 87 165 1.0 4.0 0.00 0.15 0.01 67 1011.2
20260905223335 87 161 0.0 2.0 0.00 0.15 0.01 68 1011.1
20260905223057 86 163 0.0 3.0 0.00 0.15 0.01 68 1011.1
20260905222849 87 162 0.0 3.0 0.00 0.15 0.01 68 1011.3
20260905222332 87 113 1.0 3.0 0.00 0.15 0.01 67 1011.3
20260905221845 87 116 0.0 3.0 0.00 0.15 0.01 67 1011.3
20260905221506 87 123 0.0 3.0 0.00 0.15 0.01 67 1011.2
20260905221328 87 120 1.0 3.0 0.00 0.15 0.01 67 1011.4
20260905220841 87 130 1.0 3.0 0.00 0.15 0.01 68 1011.3
20260905220325 87 138 1.0 6.0 0.00 0.15 0.01 68 1011.3
20260905220026 87 103 1.0 6.0 0.00 0.15 0.01 68 1011.3
20260905215834 87 103 2.0 6.0 0.00 0.15 0.01 68 1011.4
20260905215347 88 155 2.0 5.0 0.00 0.15 0.01 68 1011.4
20260905214831 88 73 1.0 6.0 0.00 0.15 0.01 67 1011.4
20260905214550 88 90 1.0 6.0 0.00 0.15 0.01 66 1011.4
20260905214344 89 85 1.0 6.0 0.00 0.15 0.01 66 1011.5
20260905213824 90 193 1.0 8.0 0.00 0.15 0.01 63 1011.6
20260905213338 93 67 3.0 8.0 0.00 0.15 0.01 59 1011.6
20260905213105 93 32 0.0 3.0 0.00 0.15 0.01 54 1011.4
20260905212841 94 223 1.0 3.0 0.00 0.15 0.01 53 1011.4
20260905212334 94 223 1.0 4.0 0.00 0.15 0.01 54 1011.5
20260905211847 94 223 2.0 5.0 0.00 0.15 0.01 53 1011.4
20260905211537 93 223 2.0 5.0 0.00 0.15 0.01 53 1011.4
20260905211351 94 223 2.0 6.0 0.00 0.15 0.01 53 1011.5
20260905210843 93 188 1.0 6.0 0.00 0.15 0.01 57 1011.6
20260905210326 92 219 1.0 4.0 0.00 0.15 0.01 58 1011.4
20260905210023 92 219 0.0 6.0 0.00 0.15 0.01 57 1011.3
20260905205840 93 219 0.0 6.0 0.00 0.15 0.01 57 1011.4
20260905205353 93 219 3.0 6.0 0.00 0.15 0.01 53 1011.4
20260905204836 94 150 1.0 4.0 0.00 0.15 0.01 55 1011.4
20260905204538 93 209 0.0 4.0 0.00 0.15 0.01 55 1011.3
20260905204329 94 209 1.0 4.0 0.00 0.15 0.01 55 1011.4
20260905203833 94 111 1.0 6.0 0.00 0.15 0.01 54 1011.3
20260905203326 94 188 2.0 6.0 0.00 0.15 0.01 54 1011.3
20260905203058 93 217 2.0 4.0 0.00 0.15 0.01 55 1011.2
20260905202829 93 229 1.0 9.0 0.00 0.15 0.01 55 1011.3
20260905202343 93 229 2.0 9.0 0.00 0.15 0.01 56 1011.2
20260905201826 92 167 2.0 4.0 0.00 0.15 0.01 56 1011.2
20260905201512 92 223 1.0 4.0 0.00 0.15 0.01 57 1011.1
20260905201335 92 223 1.0 6.0 0.00 0.15 0.01 57 1011.2
20260905200848 92 218 1.0 6.0 0.00 0.15 0.01 60 1011.3
20260905200340 91 213 0.0 3.0 0.00 0.15 0.01 58 1011.3
20260905200020 91 213 1.0 3.0 0.00 0.15 0.01 58 1011.2
20260905195844 92 213 1.0 3.0 0.00 0.15 0.01 59 1011.3
20260905195336 92 213 1.0 7.0 0.00 0.15 0.01 56 1011.4
20260905194840 92 214 2.0 7.0 0.00 0.15 0.01 56 1011.4
20260905194529 92 182 1.0 5.0 0.00 0.15 0.01 57 1011.2
20260905194333 93 202 2.0 5.0 0.00 0.15 0.01 57 1011.4
20260905193837 93 193 2.0 4.0 0.00 0.15 0.01 57 1011.4
20260905193330 93 42 1.0 5.0 0.00 0.15 0.01 56 1011.5
20260905193049 93 300 1.0 10.0 0.00 0.15 0.01 55 1011.5
20260905192843 94 219 3.0 10.0 0.00 0.15 0.01 54 1011.7
20260905192333 94 227 4.0 10.0 0.00 0.15 0.01 53 1011.9
20260905191826 94 169 3.0 6.0 0.00 0.15 0.01 55 1012.0
20260905191605 93 223 3.0 6.0 0.00 0.15 0.01 55 1012.0
20260905191330 94 207 4.0 6.0 0.00 0.15 0.01 55 1012.1
20260905190843 94 124 1.0 6.0 0.00 0.15 0.01 57 1012.0
20260905190337 93 236 2.0 6.0 0.00 0.15 0.01 59 1011.9
20260905190010 91 171 1.0 5.0 0.00 0.49 0.01 59 1011.8
20260905185910 91 165 2.0 5.0 0.00 0.49 0.01 59 1012.0
20260905185353 91 84 2.0 5.0 0.00 0.49 0.01 59 1011.9
20260905184826 91 56 1.0 4.0 0.00 0.49 0.01 58 1012.0
20260905184600 91 89 1.0 4.0 0.00 0.49 0.01 58 1012.0
20260905184326 92 200 1.0 4.0 0.00 0.49 0.01 59 1012.1
20260905183838 92 100 1.0 5.0 0.00 0.49 0.01 58 1012.2
20260905183351 92 238 1.0 5.0 0.00 0.49 0.01 60 1012.3
20260905183009 91 206 1.0 8.0 0.00 0.49 0.01 60 1012.3
20260905182904 92 224 0.0 9.0 0.00 0.49 0.01 61 1012.3
20260905182327 91 214 4.0 9.0 0.00 0.49 0.01 59 1012.4
20260905181840 91 223 2.0 6.0 0.00 0.49 0.01 61 1012.5
20260905181508 90 12 1.0 6.0 0.00 0.49 0.01 60 1012.5
20260905181343 90 17 3.0 6.0 0.00 0.49 0.01 59 1012.6
20260905180857 91 11 1.0 6.0 0.00 0.49 0.01 61 1012.7
20260905180349 91 93 2.0 6.0 0.00 0.49 0.01 61 1012.6
20260905180007 91 60 0.0 6.0 0.00 3.78 0.01 61 1012.6
20260905175832 91 105 1.0 6.0 0.00 3.78 0.01 61 1012.6
20260905175325 91 233 2.0 8.0 0.00 3.78 0.01 59 1012.7
20260905174859 91 221 2.0 8.0 0.00 3.78 0.01 60 1012.8
20260905174505 90 244 2.0 8.0 0.00 3.78 0.01 61 1012.8
20260905174342 90 202 1.0 3.0 0.00 3.78 0.01 62 1012.9
20260905173834 90 281 1.0 5.0 0.00 3.78 0.01 64 1013.0
20260905173338 89 70 2.0 5.0 0.00 3.78 0.01 63 1013.1
20260905173025 88 175 0.0 4.0 0.00 3.78 0.01 65 1013.1
20260905172831 89 53 1.0 4.0 0.00 3.78 0.01 64 1013.2
20260905172344 88 184 1.0 4.0 0.00 3.78 0.01 64 1013.1
20260905171828 88 37 0.0 4.0 0.00 3.78 0.01 65 1013.2
20260905171546 88 36 1.0 4.0 0.00 3.78 0.01 64 1013.2
20260905171357 89 235 1.0 4.0 0.00 3.78 0.01 64 1013.3
20260905170849 90 34 2.0 5.0 0.00 3.78 0.01 62 1013.4
20260905170329 90 186 1.0 4.0 0.00 3.78 0.01 63 1013.6
20260905170045 89 196 0.0 5.0 0.00 4.16 0.01 63 1013.5
20260905165842 90 195 0.0 5.0 0.00 4.16 0.01 63 1013.7
20260905165326 89 213 2.0 5.0 0.00 4.16 0.01 63 1013.8
20260905164859 89 69 0.0 4.0 0.00 4.16 0.01 64 1013.9
20260905164539 89 68 1.0 4.0 0.00 4.16 0.01 65 1013.9
20260905164331 89 232 1.0 4.0 0.00 4.16 0.01 65 1014.0
20260905163905 88 227 1.0 5.0 0.00 4.16 0.01 65 1014.2
20260905163327 88 191 1.0 5.0 0.00 4.16 0.01 66 1014.3
20260905163039 87 97 0.0 4.0 0.00 4.16 0.01 66 1014.2
20260905162901 88 220 1.0 6.0 0.00 4.16 0.01 66 1014.2
20260905162326 88 355 1.0 6.0 0.00 4.16 0.01 65 1014.2
20260905161839 88 355 1.0 5.0 0.00 4.16 0.01 66 1014.4
20260905161606 87 157 1.0 5.0 0.00 4.16 0.01 67 1014.4
20260905161352 87 217 1.0 5.0 0.00 4.16 0.01 67 1014.5
20260905160836 87 207 2.0 5.0 0.00 4.16 0.01 67 1014.7
20260905160327 87 40 2.0 5.0 0.00 4.16 0.01 68 1014.7
20260905160059 86 26 2.0 5.0 0.00 4.26 0.01 68 1014.7
20260905155831 87 351 1.0 6.0 0.00 4.26 0.01 69 1014.8
20260905155324 87 188 2.0 6.0 0.00 4.26 0.01 68 1014.8
20260905154833 87 13 1.0 6.0 0.00 4.26 0.01 69 1014.8
20260905154614 86 92 1.0 6.0 0.00 4.26 0.01 69 1014.9
20260905154333 86 338 1.0 7.0 0.00 4.26 0.01 69 1014.9
20260905153826 86 148 1.0 4.0 0.00 4.26 0.01 69 1014.9
20260905153339 86 23 1.0 3.0 0.00 4.26 0.01 70 1015.0
20260905153104 85 217 0.0 3.0 0.00 4.26 0.01 70 1014.9
20260905152853 86 217 1.0 3.0 0.00 4.26 0.01 70 1015.0
20260905152337 86 217 2.0 6.0 0.00 4.26 0.01 69 1015.0
20260905151830 85 219 3.0 6.0 0.00 4.26 0.01 70 1015.0
20260905151506 84 219 1.0 4.0 0.00 4.26 0.01 70 1015.0
20260905151333 85 223 2.0 3.0 0.00 4.26 0.01 70 1015.1
20260905150826 85 225 1.0 3.0 0.00 4.26 0.01 71 1015.1
20260905150339 85 225 2.0 3.0 0.00 4.26 0.01 71 1015.0
20260905150008 84 226 0.0 4.0 0.00 4.29 0.01 71 1014.9
20260905145843 84 227 1.0 5.0 0.00 4.29 0.01 71 1015.0
20260905145336 84 223 1.0 5.0 0.00 4.29 0.01 71 1015.0
20260905144849 84 227 2.0 5.0 0.00 4.29 0.01 72 1015.0
20260905144522 83 236 2.0 5.0 0.00 4.29 0.01 71 1014.9
20260905144333 83 223 2.0 5.0 0.00 4.29 0.01 71 1015.0
20260905143826 83 221 2.0 5.0 0.00 4.29 0.01 72 1015.1
20260905143330 82 224 1.0 4.0 0.00 4.29 0.01 74 1015.0
20260905143019 82 220 1.0 4.0 0.00 4.29 0.01 75 1014.9
20260905142913 82 221 1.0 4.0 0.00 4.29 0.01 75 1014.9
20260905142356 82 219 1.0 3.0 0.00 4.29 0.01 77 1015.0
20260905141828 81 222 1.0 4.0 0.00 4.29 0.01 78 1014.9
20260905141548 80 196 1.0 4.0 0.00 4.29 0.01 78 1014.9
20260905141341 81 194 2.0 5.0 0.00 4.29 0.01 79 1015.0
20260905140911 80 215 2.0 5.0 0.00 4.29 0.01 79 1015.1
20260905140403 80 240 2.0 5.0 0.00 4.29 0.01 79 1015.0
20260905140012 79 242 0.0 3.0 0.00 4.29 0.01 79 1015.0
20260905135826 80 242 1.0 3.0 0.00 4.29 0.01 80 1015.1
20260905135339 79 242 1.0 3.0 0.00 4.29 0.01 80 1015.1
20260905134852 79 242 1.0 3.0 0.00 4.29 0.01 80 1015.0
20260905134518 78 242 1.0 3.0 0.00 4.29 0.01 80 1014.9
20260905134336 79 242 1.0 3.0 0.00 4.29 0.01 80 1014.9
20260905133825 78 243 1.0 3.0 0.00 4.29 0.01 80 1014.9
20260905133359 78 243 1.0 2.0 0.00 4.29 0.01 80 1014.9
20260905133106 78 243 0.0 2.0 0.00 4.29 0.01 80 1014.8
20260905132851 78 243 0.0 3.0 0.00 4.29 0.01 80 1014.9
20260905132335 77 243 1.0 3.0 0.00 4.29 0.01 80 1014.9
20260905131848 77 243 1.0 2.0 0.00 4.29 0.01 80 1014.9
20260905131502 77 243 0.0 2.0 0.00 4.29 0.01 80 1014.7
20260905131332 77 243 0.0 2.0 0.00 4.29 0.01 80 1014.8
20260905130824 77 243 0.0 4.0 0.00 4.29 0.01 80 1014.8
20260905130337 77 243 2.0 4.0 0.00 4.29 0.01 80 1014.8
20260905130004 76 243 0.0 4.0 0.00 4.29 0.01 80 1014.8
20260905125907 77 243 1.0 4.0 0.00 4.29 0.01 80 1014.8
20260905125330 77 243 1.0 3.0 0.00 4.29 0.01 80 1014.9
20260905124843 77 243 1.0 3.0 0.00 4.29 0.01 80 1014.9
20260905124552 76 243 0.0 3.0 0.00 4.29 0.01 80 1014.7